GW3564 Weather Reports


time (UTC)temp
F
wind
direction
speed
knots
gust
knots
rain 1hr
in
rain 24hr
in
rain mn
in
humidity
%
barometer
mb
20260510174713 76 286 2.6 2.6 0.00 0.00 0.00 45 1017.3
20260510174211 76 341 4.3 7.0 0.00 0.00 0.00 45 1017.4
20260510173706 77 222 2.6 2.6 0.00 0.00 0.00 41 1017.5
20260510173202 76 252 2.6 2.6 0.00 0.00 0.00 42 1017.7
20260510172658 77 227 4.3 6.1 0.00 0.00 0.00 42 1017.6
20260510172154 77 247 2.6 2.6 0.00 0.00 0.00 41 1017.6
20260510171651 77 232 3.5 4.3 0.00 0.00 0.00 41 1017.7
20260510171149 77 244 2.6 2.6 0.00 0.00 0.00 41 1017.6
20260510170645 76 243 4.3 6.1 0.00 0.00 0.00 42 1017.9
20260510170141 76 267 2.6 4.3 0.00 0.00 0.00 40 1017.6
20260510165637 75 217 3.5 4.3 0.00 0.00 0.00 41 1017.7
20260510165133 75 204 0.9 0.9 0.00 0.00 0.00 50 1017.6
20260510164631 76 208 0.9 1.7 0.00 0.00 0.00 44 1017.9
20260510164127 76 264 4.3 5.2 0.00 0.00 0.00 43 1017.8
20260510163623 75 247 1.7 1.7 0.00 0.00 0.00 45 1017.9
20260510163119 75 217 1.7 1.7 0.00 0.00 0.00 46 1017.8
20260510162614 75 87 1.7 4.3 0.00 0.00 0.00 48 1017.9
20260510162110 75 186 0.9 0.9 0.00 0.00 0.00 49 1017.7
20260510161606 74 221 0.9 0.9 0.00 0.00 0.00 48 1018.1
20260510161104 75 246 2.6 2.6 0.00 0.00 0.00 47 1017.7
20260510160600 76 265 2.6 2.6 0.00 0.00 0.00 46 1017.8
20260510160100 75 278 1.7 1.7 0.00 0.00 0.00 48 1017.8
20260510155557 73 164 0.9 0.9 0.00 0.00 0.00 52 1017.8
20260510155053 73 285 3.5 4.3 0.00 0.00 0.00 51 1017.9
20260510154549 72 237 2.6 2.6 0.00 0.00 0.00 54 1018.0
20260510154044 71 82 0.9 1.7 0.00 0.00 0.00 58 1017.8
20260510153539 73 187 0.9 1.7 0.00 0.00 0.00 56 1018.1
20260510153037 72 153 0.9 1.7 0.00 0.00 0.00 57 1017.9
20260510152533 73 263 0.9 1.7 0.00 0.00 0.00 54 1017.9
20260510152030 73 177 0.0 0.9 0.00 0.00 0.00 56 1018.4
20260510151526 73 192 0.9 0.9 0.00 0.00 0.00 60 1018.2
20260510151024 73 251 0.9 1.7 0.00 0.00 0.00 57 1018.2
20260510150518 71 236 1.7 1.7 0.00 0.00 0.00 58 1018.2
20260510150015 71 269 0.9 0.9 0.00 0.00 0.00 62 1018.1
20260510145512 71 207 1.7 1.7 0.00 0.00 0.00 62 1017.9
20260510145008 71 245 1.7 1.7 0.00 0.00 0.00 60 1018.2
20260510144505 69 243 1.7 2.6 0.00 0.00 0.00 64 1018.1
20260510144001 69 156 0.9 0.9 0.00 0.00 0.00 64 1018.4
20260510143456 70 180 1.7 1.7 0.00 0.00 0.00 65 1018.1
20260510142953 69 219 0.9 1.7 0.00 0.00 0.00 64 1018.0
20260510142450 68 201 0.0 0.9 0.00 0.00 0.00 67 1018.2
20260510141947 67 240 1.7 1.7 0.00 0.00 0.00 67 1018.1
20260510141443 65 175 0.9 0.9 0.00 0.00 0.00 71 1018.4
20260510140941 65 178 1.7 1.7 0.00 0.00 0.00 69 1018.2
20260510140437 67 181 0.0 0.9 0.00 0.00 0.00 67 1018.4
20260510135936 66 177 0.9 0.9 0.00 0.00 0.00 68 1018.2
20260510135432 64 178 0.9 0.9 0.00 0.00 0.00 72 1018.6
20260510134929 63 198 0.9 0.9 0.00 0.00 0.00 73 1018.6
20260510134426 63 180 0.0 0.9 0.00 0.00 0.00 73 1018.5
20260510133922 63 178 0.9 0.9 0.00 0.00 0.00 73 1018.6
20260510133419 62 189 0.9 0.9 0.00 0.00 0.00 74 1018.4
20260510132914 60 198 0.0 0.9 0.00 0.00 0.00 75 1018.5
20260510132412 60 153 0.9 1.7 0.00 0.00 0.00 74 1018.5
20260510131909 59 178 0.0 0.9 0.00 0.00 0.00 78 1018.2
20260510131407 60 270 1.7 1.7 0.00 0.00 0.00 77 1018.5
20260510130903 59 180 0.0 0.0 0.00 0.00 0.00 79 1018.5
20260510130400 60 164 0.0 0.9 0.00 0.00 0.00 78 1018.5
20260510125857 59 173 0.9 0.9 0.00 0.00 0.00 79 1018.4
20260510125353 59 178 0.0 0.9 0.00 0.00 0.00 79 1018.7
20260510124850 59 180 0.0 0.9 0.00 0.00 0.00 78 1018.2
20260510124346 59 184 0.9 0.9 0.00 0.00 0.00 80 1018.4
20260510123842 58 168 0.0 0.9 0.00 0.00 0.00 83 1018.4
20260510123338 57 193 0.9 0.9 0.00 0.00 0.00 83 1018.5
20260510122834 57 174 0.0 0.9 0.00 0.00 0.00 84 1018.2
20260510122330 56 174 0.0 0.0 0.00 0.00 0.00 86 1018.1
20260510121827 56 179 0.0 0.0 0.00 0.00 0.00 86 1018.4
20260510121325 57 177 0.0 0.0 0.00 0.00 0.00 86 1018.0
20260510120822 55 174 0.0 0.0 0.00 0.00 0.00 88 1018.0
20260510120319 53 174 0.0 0.0 0.00 0.00 0.00 91 1017.9
20260510115814 52 173 0.0 0.0 0.00 0.00 0.00 94 1017.9
20260510115312 50 178 0.0 0.0 0.00 0.00 0.00 97 1018.0
20260510114807 50 173 0.0 0.0 0.00 0.00 0.00 99 1018.1
20260510114305 48 172 0.0 0.0 0.00 0.00 0.00 99 1018.1
20260510113800 47 174 0.0 0.0 0.00 0.00 0.00 99 1018.1
20260510113257 47 175 0.0 0.0 0.00 0.00 0.00 99 1018.0
20260510112753 47 180 0.0 0.0 0.00 0.00 0.00 99 1017.6
20260510112250 47 173 0.0 0.0 0.00 0.00 0.00 99 1017.5
20260510111746 48 174 0.0 0.0 0.00 0.00 0.00 99 1017.6
20260510111243 45 175 0.0 0.0 0.00 0.00 0.00 99 1017.6
20260510110742 43 176 0.0 0.0 0.00 0.00 0.00 99 1017.5
20260510110241 43 178 0.0 0.0 0.00 0.00 0.00 99 1017.4
20260510105741 43 176 0.0 0.0 0.00 0.00 0.00 99 1017.1
20260510105235 43 178 0.0 0.0 0.00 0.00 0.00 99 1017.0
20260510104732 43 184 0.0 0.0 0.00 0.00 0.00 99 1017.0
20260510104230 43 199 0.0 0.0 0.00 0.00 0.00 99 1016.8
20260510103726 42 181 0.0 0.0 0.00 0.00 0.00 99 1016.8
20260510103223 43 175 0.0 0.0 0.00 0.00 0.00 99 1016.5
20260510102722 42 178 0.0 0.0 0.00 0.00 0.00 99 1016.7
20260510102218 42 179 0.0 0.0 0.00 0.00 0.00 99 1016.7
20260510101716 42 179 0.0 0.0 0.00 0.00 0.00 99 1016.7
20260510101215 42 182 0.0 0.0 0.00 0.00 0.00 99 1016.5
20260510100710 42 179 0.0 0.0 0.00 0.00 0.00 99 1016.4
20260510100208 43 179 0.0 0.0 0.00 0.00 0.00 99 1016.3
20260510095703 43 179 0.0 0.0 0.00 0.00 0.00 99 1016.4
20260510095158 43 180 0.0 0.0 0.00 0.00 0.00 99 1016.2
20260510094657 43 180 0.0 0.0 0.00 0.00 0.00 99 1016.2
20260510094153 43 180 0.0 0.0 0.00 0.00 0.00 99 1016.2
20260510093649 43 179 0.0 0.0 0.00 0.00 0.00 99 1016.4
20260510093147 43 180 0.0 0.0 0.00 0.00 0.00 99 1016.1
20260510092643 43 180 0.0 0.0 0.00 0.00 0.00 99 1016.3
20260510092138 43 179 0.0 0.0 0.00 0.00 0.00 99 1016.2
20260510091635 43 181 0.0 0.0 0.00 0.00 0.00 99 1016.0
20260510091132 43 184 0.0 0.0 0.00 0.00 0.00 99 1015.8
20260510090629 43 198 0.0 0.0 0.00 0.00 0.00 99 1015.9
20260510090125 43 181 0.0 0.0 0.00 0.00 0.00 99 1016.1
20260510085620 43 179 0.0 0.0 0.00 0.00 0.00 99 1016.0
20260510085115 44 179 0.0 0.0 0.00 0.00 0.00 99 1015.8
20260510084612 44 179 0.0 0.0 0.00 0.00 0.00 99 1015.9
20260510084108 44 183 0.0 0.0 0.00 0.00 0.00 99 1015.7
20260510083605 44 178 0.0 0.0 0.00 0.00 0.00 99 1015.9
20260510083101 44 178 0.0 0.0 0.00 0.00 0.00 99 1015.9
20260510082558 44 177 0.0 0.0 0.00 0.00 0.00 99 1015.7
20260510082053 44 178 0.0 0.0 0.00 0.00 0.00 99 1015.6
20260510081548 44 178 0.0 0.0 0.00 0.00 0.00 99 1015.6
20260510081044 44 179 0.0 0.0 0.00 0.00 0.00 99 1015.6
20260510080544 44 177 0.0 0.0 0.00 0.00 0.00 99 1015.5
20260510080041 45 178 0.0 0.0 0.00 0.00 0.00 99 1015.6
20260510075538 45 178 0.0 0.0 0.00 0.00 0.00 99 1015.4
20260510075035 45 204 0.0 0.0 0.00 0.00 0.00 99 1015.5
20260510074533 45 182 0.0 0.0 0.00 0.00 0.00 99 1015.5
20260510074028 45 182 0.0 0.0 0.00 0.00 0.00 99 1015.4
20260510073524 45 182 0.0 0.0 0.00 0.00 0.00 99 1015.5
20260510073021 45 187 0.0 0.0 0.00 0.00 0.00 99 1015.6
20260510072518 45 186 0.0 0.0 0.00 0.00 0.00 99 1015.4
20260510072013 45 184 0.0 0.0 0.00 0.00 0.00 99 1015.6
20260510071509 45 181 0.0 0.0 0.00 0.00 0.00 99 1015.1
20260510071008 46 181 0.0 0.0 0.00 0.00 0.00 99 1015.3
20260510070505 46 179 0.0 0.0 0.00 0.00 0.00 99 1015.2
20260510070001 46 181 0.0 0.0 0.00 0.00 0.00 99 1015.4
20260510065458 46 181 0.0 0.0 0.00 0.00 0.00 99 1015.2
20260510064954 46 179 0.0 0.0 0.00 0.00 0.00 99 1015.0
20260510064451 46 178 0.0 0.0 0.00 0.00 0.00 99 1015.4
20260510063947 46 181 0.0 0.0 0.00 0.00 0.00 99 1015.1
20260510063443 46 181 0.0 0.0 0.00 0.00 0.00 99 1015.1
20260510062942 47 183 0.0 0.0 0.00 0.00 0.00 99 1015.3
20260510062436 46 183 0.0 0.0 0.00 0.00 0.00 99 1015.2
20260510061932 46 189 0.0 0.0 0.00 0.00 0.00 99 1015.1
20260510061429 46 183 0.0 0.0 0.00 0.00 0.00 99 1015.2
20260510060925 46 184 0.0 0.0 0.00 0.00 0.00 99 1015.3
20260510060422 46 181 0.0 0.0 0.00 0.00 0.00 98 1015.4
20260510055918 47 178 0.0 0.0 0.00 0.00 0.00 98 1015.2
20260510055414 47 181 0.0 0.0 0.00 0.00 0.00 98 1015.3
20260510054912 47 182 0.0 0.0 0.00 0.00 0.00 98 1015.2
20260510054408 47 181 0.0 0.0 0.00 0.00 0.00 98 1015.2
20260510053903 47 182 0.0 0.0 0.00 0.00 0.00 97 1015.0
20260510053359 48 182 0.0 0.0 0.00 0.00 0.00 97 1015.1
20260510052855 48 181 0.0 0.0 0.00 0.00 0.00 97 1015.2
20260510052351 48 179 0.0 0.0 0.00 0.00 0.00 97 1015.1
20260510051847 48 174 0.0 0.0 0.00 0.00 0.00 97 1015.1
20260510051344 48 182 0.0 0.0 0.00 0.00 0.00 96 1015.3
20260510050841 48 182 0.0 0.0 0.00 0.00 0.00 96 1015.3
20260510050337 48 182 0.0 0.0 0.00 0.00 0.00 96 1015.0
20260510045835 48 182 0.0 0.0 0.00 0.00 0.00 96 1015.3
20260510045331 48 182 0.0 0.0 0.00 0.00 0.00 96 1015.3
20260510044829 49 182 0.0 0.0 0.00 0.00 0.00 95 1015.3
20260510044325 49 182 0.0 0.0 0.00 0.00 0.00 94 1015.2
20260510043822 50 182 0.0 0.0 0.00 0.00 0.00 94 1015.2
20260510043318 50 182 0.0 0.0 0.00 0.00 0.00 93 1015.2
20260510042815 50 182 0.0 0.0 0.00 0.00 0.00 93 1015.0
20260510042311 50 187 0.0 0.0 0.00 0.00 0.00 93 1015.2
20260510041808 50 190 0.0 0.0 0.00 0.00 0.00 94 1015.3
20260510041305 50 183 0.0 0.0 0.00 0.00 0.00 94 1015.3
20260510040803 50 183 0.0 0.0 0.00 0.00 0.00 94 1015.2
20260510040259 50 183 0.0 0.0 0.00 0.00 0.00 93 1015.0
20260510035754 50 183 0.0 0.0 0.00 0.00 0.00 93 1015.0
20260510035250 50 183 0.0 0.0 0.00 0.00 0.00 93 1015.2
20260510034746 50 189 0.0 0.0 0.00 0.00 0.00 93 1015.0
20260510034245 50 181 0.0 0.0 0.00 0.00 0.00 93 1014.9
20260510033740 50 178 0.0 0.0 0.00 0.00 0.00 92 1015.0
20260510033238 50 178 0.0 0.0 0.00 0.00 0.00 92 1015.0
20260510032734 50 181 0.0 0.0 0.00 0.00 0.00 91 1014.7
20260510032231 51 179 0.0 0.0 0.00 0.00 0.00 91 1014.9
20260510031726 51 180 0.0 0.0 0.00 0.00 0.00 91 1015.0
20260510031222 51 171 0.0 0.0 0.00 0.00 0.00 90 1015.0
20260510030721 51 171 0.0 0.0 0.00 0.00 0.00 90 1014.9
20260510030219 51 179 0.0 0.0 0.00 0.00 0.00 90 1014.9
20260510025716 52 181 0.0 0.0 0.00 0.00 0.00 89 1014.9
20260510025213 52 181 0.0 0.0 0.00 0.00 0.00 88 1014.6
20260510024710 52 182 0.0 0.0 0.00 0.00 0.00 87 1014.6
20260510024207 53 182 0.0 0.0 0.00 0.00 0.00 87 1014.6
20260510023702 53 182 0.0 0.0 0.00 0.00 0.00 88 1014.6
20260510023159 53 181 0.0 0.0 0.00 0.00 0.00 88 1014.5
20260510022655 53 180 0.0 0.0 0.00 0.00 0.00 88 1014.4
20260510022150 53 182 0.0 0.0 0.00 0.00 0.00 86 1014.6
20260510021646 53 182 0.0 0.0 0.00 0.00 0.00 86 1014.4
20260510021143 53 182 0.0 0.0 0.00 0.00 0.00 85 1014.2
20260510020638 54 182 0.0 0.0 0.00 0.00 0.00 85 1014.2
20260510020133 54 174 0.0 0.0 0.00 0.00 0.00 84 1014.1
20260510015629 54 175 0.0 0.0 0.00 0.00 0.00 83 1014.3
20260510015126 54 175 0.0 0.0 0.00 0.00 0.00 83 1014.3
20260510014621 55 175 0.0 0.0 0.00 0.00 0.00 81 1014.1
20260510014119 55 175 0.0 0.0 0.00 0.00 0.00 81 1014.1
20260510013619 55 175 0.0 0.0 0.00 0.00 0.00 80 1013.8
20260510013115 56 175 0.0 0.0 0.00 0.00 0.00 79 1013.7
20260510012614 56 175 0.0 0.0 0.00 0.00 0.00 79 1013.5
20260510012111 56 176 0.0 0.0 0.00 0.00 0.00 79 1013.5
20260510011610 57 177 0.0 0.0 0.00 0.00 0.00 77 1013.3
20260510011106 57 178 0.0 0.0 0.00 0.00 0.00 75 1013.2
20260510010603 57 179 0.0 0.0 0.00 0.00 0.00 76 1013.0
20260510010100 57 179 0.0 0.0 0.00 0.00 0.00 75 1013.2
20260510005555 58 179 0.0 0.0 0.00 0.00 0.00 75 1013.0
20260510005053 58 181 0.0 0.0 0.00 0.00 0.00 76 1012.9
20260510004551 59 182 0.0 0.0 0.00 0.00 0.00 74 1013.0
20260510004049 59 181 0.0 0.0 0.00 0.00 0.00 73 1012.9
20260510003545 60 181 0.0 0.0 0.00 0.00 0.00 72 1012.9
20260510003041 60 181 0.0 0.0 0.00 0.00 0.00 69 1012.9
20260510002536 61 181 0.0 0.0 0.00 0.00 0.00 67 1012.8
20260510002034 62 182 0.0 0.0 0.00 0.00 0.00 67 1012.9
20260510001531 63 182 0.0 0.0 0.00 0.00 0.00 65 1012.9
20260510001029 64 183 0.0 0.0 0.00 0.00 0.00 62 1012.9
20260510000524 64 222 0.9 0.9 0.00 0.00 0.00 59 1012.7
20260510000021 64 213 0.0 0.9 0.00 0.00 0.00 60 1012.3
20260509235518 65 165 0.9 0.9 0.00 0.00 0.00 60 1012.6
20260509235015 66 262 2.6 2.6 0.00 0.00 0.00 57 1012.4
20260509234511 66 237 0.9 1.7 0.00 0.00 0.00 57 1012.4
20260509234009 67 180 1.7 1.7 0.00 0.00 0.00 56 1012.2
20260509233501 68 304 1.7 1.7 0.00 0.00 0.00 53 1012.2
20260509232957 68 183 0.9 0.9 0.00 0.00 0.00 54 1012.2
20260509232455 69 170 2.6 2.6 0.00 0.00 0.00 52 1012.1
20260509231950 69 197 0.9 0.9 0.00 0.00 0.00 53 1012.1
20260509231447 70 289 1.7 1.7 0.00 0.00 0.00 51 1012.1
20260509230945 70 312 2.6 2.6 0.00 0.00 0.00 51 1012.1
20260509230442 70 220 1.7 2.6 0.00 0.00 0.00 51 1012.2
20260509225938 70 197 0.0 0.9 0.00 0.00 0.00 51 1011.9
20260509225435 70 215 1.7 2.6 0.00 0.00 0.00 50 1012.0
20260509224931 70 248 2.6 2.6 0.00 0.00 0.00 48 1012.1
20260509224426 71 276 2.6 2.6 0.00 0.00 0.00 49 1012.1
20260509223923 72 233 2.6 2.6 0.00 0.00 0.00 47 1011.9
20260509223420 71 190 1.7 1.7 0.00 0.00 0.00 50 1012.0
20260509222918 71 271 4.3 7.0 0.00 0.00 0.00 48 1012.0
20260509222412 71 202 1.7 2.6 0.00 0.00 0.00 50 1012.0
20260509221908 71 276 2.6 2.6 0.00 0.00 0.00 50 1012.0
20260509221405 71 196 4.3 6.1 0.00 0.00 0.00 50 1012.1
20260509220901 71 271 3.5 5.2 0.00 0.00 0.00 49 1012.1
20260509220357 71 283 3.5 7.0 0.00 0.00 0.00 49 1011.9
20260509215852 69 264 2.6 2.6 0.00 0.00 0.00 52 1011.8
20260509215344 71 217 1.7 2.6 0.00 0.00 0.00 50 1011.7
20260509214841 71 195 4.3 4.3 0.00 0.00 0.00 49 1011.7
20260509214338 73 319 1.7 2.6 0.00 0.00 0.00 48 1011.7
20260509213835 72 246 2.6 4.3 0.00 0.00 0.00 47 1012.0
20260509213330 71 204 0.0 0.9 0.00 0.00 0.00 51 1011.8
20260509212828 71 240 0.9 1.7 0.00 0.00 0.00 49 1011.8
20260509212325 71 207 1.7 1.7 0.00 0.00 0.00 48 1011.5
20260509211820 71 211 1.7 1.7 0.00 0.00 0.00 48 1011.6
20260509211311 71 183 0.9 0.9 0.00 0.00 0.00 49 1011.3
20260509210808 70 265 1.7 1.7 0.00 0.00 0.00 49 1011.5
20260509210306 70 226 1.7 1.7 0.00 0.00 0.00 49 1011.3
20260509205805 70 275 0.0 1.7 0.00 0.00 0.00 54 1011.5
20260509205300 70 260 3.5 4.3 0.00 0.00 0.00 48 1011.1
20260509204756 71 223 3.5 4.3 0.00 0.00 0.00 48 1011.5
20260509204253 73 284 3.5 4.3 0.00 0.00 0.00 46 1011.1
20260509203749 71 196 0.9 1.7 0.00 0.00 0.00 51 1011.3
20260509203247 70 221 3.5 5.2 0.00 0.00 0.00 48 1011.2
20260509202743 71 195 0.9 1.7 0.00 0.00 0.00 48 1011.2
20260509202238 72 217 2.6 4.3 0.00 0.00 0.00 48 1011.2
20260509201733 70 185 0.0 0.9 0.00 0.00 0.00 51 1011.2
20260509201229 71 242 0.9 1.7 0.00 0.00 0.00 47 1011.2
20260509200726 72 270 3.5 4.3 0.00 0.00 0.00 46 1011.1
20260509200222 73 251 2.6 4.3 0.00 0.00 0.00 46 1011.2
20260509195717 71 228 2.6 4.3 0.00 0.00 0.00 48 1011.1
20260509195212 71 246 2.6 4.3 0.00 0.00 0.00 46 1011.3
20260509194707 71 234 2.6 2.6 0.00 0.00 0.00 47 1011.1
20260509194204 74 17 4.3 5.2 0.00 0.00 0.00 46 1011.3
20260509193701 72 209 0.9 0.9 0.00 0.00 0.00 46 1011.1
20260509193156 73 201 0.9 0.9 0.00 0.00 0.00 47 1011.1
20260509192652 74 258 1.7 2.6 0.00 0.00 0.00 46 1011.1
20260509192147 72 237 1.7 2.6 0.00 0.00 0.00 46 1011.0
20260509191642 72 215 0.9 0.9 0.00 0.00 0.00 48 1011.0
20260509191138 72 205 2.6 2.6 0.00 0.00 0.00 45 1011.0
20260509190634 71 292 2.6 2.6 0.00 0.00 0.00 46 1011.0
20260509190127 72 247 3.5 4.3 0.00 0.00 0.00 47 1011.1
20260509185624 72 232 1.7 1.7 0.00 0.00 0.00 46 1011.5
20260509185119 72 199 1.7 2.6 0.00 0.00 0.00 47 1011.3
20260509184613 72 208 1.7 1.7 0.00 0.00 0.00 48 1011.3
20260509184109 71 199 1.7 2.6 0.00 0.00 0.00 47 1011.3
20260509183604 72 327 4.3 6.1 0.00 0.00 0.00 49 1011.6
20260509183100 73 245 0.9 0.9 0.00 0.00 0.00 49 1011.3
20260509182557 72 331 2.6 2.6 0.00 0.00 0.00 50 1011.1
20260509182053 69 195 2.6 2.6 0.00 0.00 0.00 49 1011.3
20260509181552 69 272 1.7 1.7 0.00 0.00 0.00 49 1011.3
20260509181049 70 251 2.6 2.6 0.00 0.00 0.00 48 1011.5
20260509180544 70 211 1.7 2.6 0.00 0.00 0.00 48 1011.3
20260509180042 70 291 3.5 5.2 0.00 0.00 0.00 47 1011.7
20260509175537 70 175 3.5 4.3 0.00 0.00 0.00 48 1011.5